Home   Weather   Yaoundé   Past weeks
Flag for Cameroon

Past Weather in Yaoundé, Cameroon — Yesterday and Last 2 Weeks

Now
73 °F

Passing clouds.


Feels Like: 68 °F
Forecast: 87 / 70 °F
Wind: 3 mph from West

Location: Yaounde Airport

Current Time: Mar 21, 2019 at 5:19:15 am

Latest Report: Mar 21, 2019 at 4:00 am


Visibility: 5 mi

Pressure: 29.92 "Hg (27.54 "Hg at 717m altitude)

Humidity: 100%

Dew Point: 73 °F

Location of YaoundéLocation

Past Weather in Yaoundé — Graph

°F

Yaoundé Temperature Yesterday

Maximum temperature yesterday: 90 °F (at 3:00 pm)
Minimum temperature yesterday: 70 °F (at 3:00 am)
Average temperature yesterday: 79 °F

High & Low Weather Summary for the Past Weeks

 TemperatureHumidityPressure
High93 °F (Mar 13, 3:00 pm)100% (Mar 7, 1:00 am)30.09 "Hg (Mar 7, 1:00 am)
Low66 °F (Mar 16, 4:00 am)38% (Mar 8, 5:00 pm)29.83 "Hg (Mar 18, 5:00 pm)
Average78 °F83%29.98 "Hg
* Reported Mar 6 4:00 am — Mar 21 4:00 am, Yaoundé. Weather by CustomWeather, © 2019

Note: Actual official high and low records may vary slightly from our data, if they occured in-between our weather recording intervals... More about our weather records

Advertising

Yaoundé Weather History for the Previous 24 Hours

Scroll right to see more
 ConditionsComfort  
Time TempWeatherWind HumidityBarometerVisibility
4:00 am
Thu, Mar 21
73 °FPassing clouds.3 mph100%29.92 "Hg5 mi
3:00 am73 °FPassing clouds.5 mph100%29.92 "Hg5 mi
2:00 am75 °FPassing clouds.5 mph94%29.92 "Hg6 mi
1:00 am75 °FPassing clouds.6 mph94%29.92 "Hg6 mi
12:00 am75 °FPassing clouds.7 mph94%29.95 "Hg6 mi
11:00 pm
Wed, Mar 20
77 °FPassing clouds.6 mph94%29.95 "Hg5 mi
10:00 pm77 °FPassing clouds.3 mph94%29.95 "HgN/A
9:00 pm79 °FPassing clouds.5 mph89%29.95 "HgN/A
8:00 pm81 °FPassing clouds.6 mph79%29.89 "HgN/A
7:00 pm82 °FPassing clouds.3 mph74%29.86 "HgN/A
6:00 pm86 °FPartly sunny.6 mph66%29.83 "HgN/A
5:00 pm90 °FPartly sunny.5 mph59%29.83 "HgN/A
4:00 pm90 °FPartly sunny.6 mph59%29.83 "HgN/A
3:00 pm90 °FPartly sunny.5 mph59%29.86 "HgN/A
2:00 pm88 °FPartly sunny.9 mph59%29.89 "HgN/A
1:00 pm84 °FPartly sunny.8 mph70%29.95 "HgN/A
12:00 pm82 °FPartly sunny.5 mph70%29.98 "HgN/A
11:00 am81 °FPartly sunny.7 mph79%30.01 "HgN/A
10:00 am79 °FPartly sunny.8 mph84%30.01 "HgN/A
9:00 am79 °FPartly sunny.3 mph79%29.98 "HgN/A
8:00 am75 °FScattered clouds.3 mph89%29.98 "HgN/A
7:00 am72 °FPartly sunny.3 mph94%29.95 "Hg5 mi
6:00 am70 °FPassing clouds.3 mph100%29.95 "Hg5 mi
5:00 am70 °FPassing clouds.3 mph94%29.95 "Hg5 mi
Weather by CustomWeather, © 2019

See weather overview